When you browse on this site, cookies collect data to enhance your experience and personalize the content and advertising you see.
Visit our Privacy Policy to learn more. By continuing to use the site, you agree to this use of cookies and data.
EN

Hourly Weather Canillo

Today, 3 July, Friday

Time Temperature Precipitation Wind Pressure Humidity
00:00 +9°C° 0 mm 2 mps 620 mmHg 97%
01:00 +9°C° 0.5 mm 2 mps 620 mmHg 97%
02:00 +8°C° 0.5 mm 2 mps 620 mmHg 97%
03:00 +8°C° 0.5 mm 2 mps 620 mmHg 97%
04:00 +8°C° 0.2 mm 2 mps 620 mmHg 96%
05:00 +8°C° 0.2 mm 2 mps 620 mmHg 95%
06:00 +8°C° 0 mm 3 mps 621 mmHg 94%
07:00 +9°C° 0 mm 2 mps 621 mmHg 89%
08:00 +10°C° 0 mm 2 mps 622 mmHg 84%
09:00 +12°C° 0 mm 2 mps 622 mmHg 78%
10:00 +13°C° 0 mm 2 mps 622 mmHg 72%
11:00 +15°C° 0 mm 2 mps 623 mmHg 65%
12:00 +16°C° 0 mm 2 mps 623 mmHg 58%
13:00 +16°C° 0 mm 2 mps 623 mmHg 56%
14:00 +17°C° 0 mm 2 mps 623 mmHg 53%
15:00 +17°C° 0 mm 2 mps 623 mmHg 51%
16:00 +16°C° 0 mm 2 mps 623 mmHg 58%
17:00 +15°C° 0 mm 2 mps 622 mmHg 65%
18:00 +14°C° 0 mm 2 mps 622 mmHg 72%
19:00 +12°C° 0 mm 2 mps 622 mmHg 78%
20:00 +9°C° 0 mm 2 mps 621 mmHg 84%
21:00 +8°C° 0 mm 2 mps 621 mmHg 90%
22:00 +7°C° 0 mm 2 mps 621 mmHg 87%
23:00 +7°C° 0 mm 2 mps 621 mmHg 85%

Tomorrow, 4 July, Saturday

Time Temperature Precipitation Wind Pressure Humidity
00:00 +6°C° 0 mm 2 mps 621 mmHg 82%
01:00 +7°C° 0 mm 1 mps 621 mmHg 76%
02:00 +7°C° 0 mm 1 mps 621 mmHg 71%
03:00 +7°C° 0 mm 1 mps 620 mmHg 65%
04:00 +8°C° 0 mm 1 mps 621 mmHg 61%
05:00 +9°C° 0 mm 1 mps 622 mmHg 57%
06:00 +10°C° 0 mm 1 mps 622 mmHg 54%
07:00 +13°C° 0 mm 1 mps 623 mmHg 49%
08:00 +15°C° 0 mm 1 mps 624 mmHg 44%
09:00 +18°C° 0 mm 1 mps 625 mmHg 39%
10:00 +19°C° 0 mm 1 mps 626 mmHg 38%
11:00 +20°C° 0 mm 1 mps 626 mmHg 38%
12:00 +21°C° 0 mm 2 mps 626 mmHg 37%
13:00 +20°C° 0 mm 2 mps 626 mmHg 40%
14:00 +20°C° 0 mm 2 mps 626 mmHg 43%
15:00 +20°C° 0 mm 2 mps 626 mmHg 45%
16:00 +19°C° 0 mm 2 mps 625 mmHg 53%
17:00 +18°C° 0 mm 2 mps 625 mmHg 60%
18:00 +17°C° 0 mm 2 mps 624 mmHg 67%
19:00 +14°C° 0 mm 2 mps 623 mmHg 74%
20:00 +12°C° 0 mm 2 mps 623 mmHg 80%
21:00 +9°C° 0 mm 2 mps 622 mmHg 86%
22:00 +9°C° 0 mm 2 mps 622 mmHg 77%
23:00 +9°C° 0 mm 2 mps 622 mmHg 67%

Day after tomorrow, 5 July, Sunday

Time Temperature Precipitation Wind Pressure Humidity
00:00 +9°C° 0 mm 2 mps 622 mmHg 58%
01:00 +9°C° 0 mm 2 mps 622 mmHg 55%
02:00 +9°C° 0 mm 2 mps 622 mmHg 53%
03:00 +9°C° 0 mm 2 mps 622 mmHg 50%
04:00 +10°C° 0 mm 2 mps 622 mmHg 53%
05:00 +12°C° 0 mm 1 mps 623 mmHg 56%
06:00 +13°C° 0 mm 1 mps 623 mmHg 59%
07:00 +15°C° 0 mm 1 mps 624 mmHg 55%
08:00 +19°C° 0 mm 1 mps 625 mmHg 51%
09:00 +21°C° 0 mm 1 mps 626 mmHg 47%
10:00 +22°C° 0 mm 1 mps 626 mmHg 46%
11:00 +23°C° 0 mm 2 mps 626 mmHg 45%
12:00 +24°C° 0 mm 2 mps 626 mmHg 44%
13:00 +24°C° 0 mm 2 mps 626 mmHg 44%
14:00 +24°C° 0 mm 2 mps 626 mmHg 44%
15:00 +24°C° 0 mm 2 mps 625 mmHg 44%
16:00 +23°C° 0 mm 2 mps 625 mmHg 51%
17:00 +20°C° 0 mm 2 mps 624 mmHg 59%
18:00 +19°C° 0 mm 2 mps 623 mmHg 66%
19:00 +17°C° 0 mm 2 mps 623 mmHg 73%
20:00 +15°C° 0 mm 1 mps 622 mmHg 79%
21:00 +13°C° 0 mm 1 mps 622 mmHg 86%
22:00 +13°C° 0 mm 1 mps 621 mmHg 85%
23:00 +12°C° 0 mm 1 mps 621 mmHg 83%

6 July, Monday

Time Temperature Precipitation Wind Pressure Humidity
00:00 +12°C° 0 mm 2 mps 621 mmHg 82%
01:00 +12°C° 0 mm 2 mps 621 mmHg 82%
02:00 +12°C° 0 mm 2 mps 621 mmHg 82%
03:00 +12°C° 0 mm 2 mps 621 mmHg 82%
04:00 +13°C° 0 mm 2 mps 621 mmHg 81%
05:00 +13°C° 0 mm 1 mps 621 mmHg 80%
06:00 +14°C° 0 mm 1 mps 622 mmHg 79%
07:00 +16°C° 0 mm 1 mps 622 mmHg 73%
08:00 +18°C° 0 mm 1 mps 623 mmHg 68%
09:00 +20°C° 0 mm 1 mps 624 mmHg 62%
10:00 +20°C° 0 mm 1 mps 624 mmHg 62%
11:00 +20°C° 0 mm 2 mps 624 mmHg 62%
12:00 +20°C° 0 mm 2 mps 623 mmHg 62%
13:00 +19°C° 0.5 mm 2 mps 623 mmHg 65%
14:00 +19°C° 0.5 mm 2 mps 623 mmHg 68%
15:00 +19°C° 0.5 mm 2 mps 622 mmHg 72%
16:00 +17°C° 0.7 mm 2 mps 622 mmHg 76%
17:00 +16°C° 0.7 mm 2 mps 621 mmHg 80%
18:00 +15°C° 0.7 mm 2 mps 621 mmHg 84%
19:00 +14°C° 0.3 mm 2 mps 621 mmHg 87%
20:00 +12°C° 0.3 mm 2 mps 620 mmHg 90%
21:00 +10°C° 0.3 mm 2 mps 620 mmHg 93%
22:00 +10°C° 0 mm 2 mps 620 mmHg 92%
23:00 +9°C° 0 mm 2 mps 620 mmHg 91%

7 July, Tuesday

Time Temperature Precipitation Wind Pressure Humidity
00:00 +9°C° 0 mm 2 mps 619 mmHg 90%
01:00 +9°C° 0 mm 2 mps 619 mmHg 90%
02:00 +8°C° 0 mm 2 mps 619 mmHg 90%
03:00 +8°C° 0 mm 2 mps 619 mmHg 89%
04:00 +9°C° 0 mm 2 mps 619 mmHg 84%
05:00 +9°C° 0 mm 2 mps 619 mmHg 79%
06:00 +9°C° 0 mm 2 mps 619 mmHg 73%
07:00 +13°C° 0 mm 2 mps 620 mmHg 61%
08:00 +15°C° 0 mm 2 mps 621 mmHg 49%
09:00 +17°C° 0 mm 2 mps 622 mmHg 36%
10:00 +18°C° 0 mm 2 mps 622 mmHg 36%
11:00 +19°C° 0 mm 2 mps 623 mmHg 35%
12:00 +20°C° 0 mm 2 mps 623 mmHg 34%
13:00 +20°C° 0 mm 2 mps 623 mmHg 37%
14:00 +20°C° 0 mm 2 mps 622 mmHg 39%
15:00 +20°C° 0 mm 2 mps 622 mmHg 41%
16:00 +19°C° 0 mm 2 mps 622 mmHg 49%
17:00 +17°C° 0 mm 2 mps 621 mmHg 57%
18:00 +16°C° 0 mm 2 mps 621 mmHg 64%
19:00 +14°C° 0 mm 2 mps 620 mmHg 69%
20:00 +12°C° 0 mm 1 mps 620 mmHg 74%
21:00 +11°C° 0 mm 1 mps 620 mmHg 79%
22:00 +10°C° 0 mm 1 mps 620 mmHg 75%
23:00 +10°C° 0 mm 1 mps 620 mmHg 71%

8 July, Wednesday

Time Temperature Precipitation Wind Pressure Humidity
00:00 +10°C° 0 mm 1 mps 619 mmHg 67%
01:00 +10°C° 0 mm 1 mps 619 mmHg 66%
02:00 +10°C° 0 mm 1 mps 619 mmHg 64%
03:00 +10°C° 0 mm 1 mps 619 mmHg 63%
04:00 +11°C° 0 mm 1 mps 620 mmHg 62%
05:00 +12°C° 0 mm 1 mps 620 mmHg 60%
06:00 +13°C° 0 mm 1 mps 621 mmHg 59%
07:00 +16°C° 0 mm 1 mps 622 mmHg 53%
08:00 +19°C° 0 mm 1 mps 623 mmHg 47%
09:00 +22°C° 0 mm 1 mps 624 mmHg 41%
10:00 +23°C° 0 mm 1 mps 624 mmHg 41%
11:00 +24°C° 0 mm 2 mps 624 mmHg 40%
12:00 +25°C° 0 mm 2 mps 625 mmHg 40%
13:00 +25°C° 0 mm 2 mps 624 mmHg 42%
14:00 +24°C° 0 mm 2 mps 624 mmHg 44%
15:00 +24°C° 0 mm 2 mps 624 mmHg 46%
16:00 +23°C° 0.2 mm 2 mps 624 mmHg 54%
17:00 +21°C° 0.2 mm 2 mps 623 mmHg 62%
18:00 +21°C° 0.2 mm 1 mps 623 mmHg 70%
19:00 +19°C° 0.1 mm 1 mps 622 mmHg 76%
20:00 +16°C° 0.1 mm 1 mps 622 mmHg 81%
21:00 +14°C° 0.1 mm 1 mps 621 mmHg 87%
22:00 +14°C° 0 mm 1 mps 621 mmHg 88%
23:00 +14°C° 0 mm 1 mps 621 mmHg 90%
Show more